Pinedale, WY

4:11 PM MST on February 24, 2017 (GMT -0700)
Wenz

Weather History for KPNA - May, 2013

Change the Weather History Date:

Tuesday, May 7, 2013

  Actual Average (KBPI) Record (KBPI)
Temperature  
Mean Temperature 40 °F -  
Max Temperature 51 °F 55 °F 72 °F (2004)
Min Temperature 28 °F 24 °F 12 °F (2010)
Degree Days  
Heating Degree Days 26    
Moisture  
Dew Point 34 °F    
Average Humidity 75    
Maximum Humidity 100    
Minimum Humidity 47    
Precipitation  
Precipitation 0.00 in - - ()
Sea Level Pressure  
Sea Level Pressure 30.03 in    
Wind  
Wind Speed 5 mph (SW)    
Max Wind Speed 15 mph    
Max Gust Speed 23 mph    
Visibility 10 miles    
Events Rain , Thunderstorm    
Averages and records for this station are not official NWS values.
T = Trace of Precipitation, MM = Missing Value Source: NWS Daily Summary

Daily Weather History Graph

Daily Weather History Graph

Search for Another Location

Airport or City:

Trip Planner

Search our weather history database for the weather conditions in past years. The results will help you decide how hot, cold, wet, or windy it might be!

Date:

Astronomy

May. 07, 2013 Rise Set
Actual Time 6:05 AM MDT 8:26 PM MDT
Civil Twilight 5:33 AM MDT 8:58 PM MDT
Nautical Twilight 4:54 AM MDT 9:38 PM MDT
Astronomical Twilight 4:10 AM MDT 10:21 PM MDT
Moon 4:44 AM MDT (5/7) 6:27 PM MDT (5/7)
Length of Visible Light 15h 24m
Length of Day
14h 21m
Waning Crescent, 5% of the Moon is Illuminated
May 7
Waning Crescent
May 9
New
May 17
First Quarter
May 24
Full
May 31
Last Quarter

Hourly Weather History & Observations

Time (MDT) Temp. Windchill Dew Point Humidity Pressure Visibility Wind Dir Wind Speed Gust Speed Precip Events Conditions
12:15 AM 41.0 °F 39.0 °F 33.8 °F 76% 30.05 in 10.0 mi WSW 3.5 mph - N/A   Scattered Clouds
12:35 AM 37.4 °F 32.8 °F 33.8 °F 87% 30.05 in 10.0 mi NW 5.8 mph - N/A   Clear
12:55 AM 35.6 °F 30.7 °F 33.8 °F 93% 30.05 in 10.0 mi WNW 5.8 mph - N/A   Clear
1:15 AM 35.6 °F 29.9 °F 33.8 °F 93% 30.04 in 10.0 mi West 6.9 mph - N/A   Clear
1:35 AM 35.6 °F 32.8 °F 33.8 °F 93% 30.03 in 10.0 mi NW 3.5 mph - N/A   Clear
1:55 AM 33.8 °F 28.6 °F 32.0 °F 93% 30.03 in 10.0 mi NW 5.8 mph - N/A   Clear
2:15 AM 32.0 °F 28.7 °F 32.0 °F 100% 30.03 in 10.0 mi NW 3.5 mph - N/A   Clear
2:35 AM 32.0 °F 27.5 °F 32.0 °F 100% 30.03 in 10.0 mi West 4.6 mph - N/A   Clear
2:55 AM 32.0 °F 25.6 °F 32.0 °F 100% 30.02 in 10.0 mi NW 6.9 mph - N/A   Clear
3:15 AM 32.0 °F 24.8 °F 32.0 °F 100% 30.02 in 10.0 mi NNW 8.1 mph - N/A   Clear
3:35 AM 32.0 °F 25.6 °F 30.2 °F 93% 30.02 in 10.0 mi WNW 6.9 mph - N/A   Clear
3:55 AM 32.0 °F 27.5 °F 30.2 °F 93% 30.02 in 10.0 mi WNW 4.6 mph - N/A   Clear
4:15 AM 30.2 °F 24.3 °F 30.2 °F 100% 30.01 in 10.0 mi WNW 5.8 mph - N/A   Clear
4:35 AM 30.2 °F 24.3 °F 30.2 °F 100% 30.01 in 10.0 mi West 5.8 mph - N/A   Clear
4:55 AM 30.2 °F 23.4 °F 28.4 °F 93% 30.01 in 10.0 mi NW 6.9 mph - N/A   Clear
5:15 AM 28.4 °F 23.3 °F 28.4 °F 100% 30.01 in 10.0 mi WNW 4.6 mph - N/A   Scattered Clouds
5:35 AM 28.4 °F 21.2 °F 28.4 °F 100% 30.01 in 10.0 mi NW 6.9 mph - N/A   Scattered Clouds
5:55 AM 28.4 °F - 28.4 °F 100% 30.01 in 10.0 mi Calm Calm - N/A   Scattered Clouds
6:15 AM 30.2 °F 24.3 °F 28.4 °F 93% 30.01 in 10.0 mi NW 5.8 mph - N/A   Scattered Clouds
6:35 AM 30.2 °F 26.7 °F 28.4 °F 93% 30.02 in 10.0 mi WNW 3.5 mph - N/A   Scattered Clouds
6:55 AM 30.2 °F - 28.4 °F 93% 30.03 in 10.0 mi Calm Calm - N/A   Clear
7:15 AM 32.0 °F - 32.0 °F 100% 30.03 in 10.0 mi Calm Calm - N/A   Clear
7:35 AM 32.0 °F - 32.0 °F 100% 30.03 in 10.0 mi Calm Calm - N/A   Scattered Clouds
7:55 AM 35.6 °F - 32.0 °F 87% 30.03 in 10.0 mi Calm Calm - N/A   Clear
8:15 AM 37.4 °F - 32.0 °F 81% 30.03 in 10.0 mi Calm Calm - N/A   Clear
8:35 AM 41.0 °F - 32.0 °F 70% 30.03 in 10.0 mi Calm Calm - N/A   Clear
8:55 AM 42.8 °F 40.1 °F 32.0 °F 66% 30.03 in 10.0 mi SE 4.6 mph - N/A   Clear
9:15 AM 46.4 °F 44.3 °F 32.0 °F 57% 30.02 in 10.0 mi ESE 4.6 mph - N/A   Clear
9:35 AM 48.2 °F - 32.0 °F 54% 30.02 in 10.0 mi South 5.8 mph - N/A   Clear
9:55 AM 50.0 °F - 33.8 °F 54% 30.02 in 10.0 mi SSE 8.1 mph - N/A   Clear
10:15 AM 50.0 °F - 35.6 °F 58% 30.01 in 10.0 mi SSE 8.1 mph - N/A   Clear
10:35 AM 51.8 °F - 35.6 °F 54% 30.02 in 10.0 mi SE 9.2 mph - N/A   Scattered Clouds
10:55 AM 51.8 °F - 35.6 °F 54% 30.02 in 10.0 mi South 13.8 mph 17.3 mph N/A   Mostly Cloudy
11:15 AM 51.8 °F - 37.4 °F 58% 30.03 in 10.0 mi SSE 10.4 mph 23.0 mph N/A   Mostly Cloudy
11:35 AM 50.0 °F - 37.4 °F 62% 30.03 in 10.0 mi SSE 10.4 mph 17.3 mph N/A   Overcast
11:55 AM 50.0 °F - 37.4 °F 62% 30.03 in 10.0 mi SSE 11.5 mph - N/A   Overcast
12:15 PM 51.8 °F - 37.4 °F 58% 30.03 in 10.0 mi South 15.0 mph 20.7 mph N/A   Overcast
12:35 PM 50.0 °F - 35.6 °F 58% 30.04 in 10.0 mi SSE 12.7 mph 21.9 mph N/A   Overcast
12:55 PM 46.4 °F 41.5 °F 41.0 °F 81% 30.04 in 10.0 mi SE 10.4 mph - N/A Rain Light Rain
1:15 PM 48.2 °F - 37.4 °F 66% 30.03 in 10.0 mi SSE 15.0 mph - N/A Rain Light Rain
1:35 PM 48.2 °F - 37.4 °F 66% 30.05 in 10.0 mi South 9.2 mph - N/A Rain Light Rain
1:55 PM 48.2 °F - 35.6 °F 62% 30.05 in 10.0 mi SSE 11.5 mph - N/A   Overcast
2:15 PM 46.4 °F 40.4 °F 37.4 °F 71% 30.05 in 10.0 mi SSE 13.8 mph 18.4 mph N/A Thunderstorm Overcast
2:35 PM 46.4 °F 41.1 °F 37.4 °F 71% 30.05 in 10.0 mi ESE 11.5 mph 17.3 mph N/A   Overcast
2:55 PM 46.4 °F 41.1 °F 39.2 °F 76% 30.05 in 10.0 mi ESE 11.5 mph - N/A Thunderstorm Overcast
3:15 PM 46.4 °F 41.9 °F 39.2 °F 76% 30.05 in 10.0 mi ESE 9.2 mph - N/A   Overcast
3:35 PM 48.2 °F - 37.4 °F 66% 30.05 in 10.0 mi East 4.6 mph - N/A   Mostly Cloudy
3:55 PM 50.0 °F - 37.4 °F 62% 30.04 in 10.0 mi East 4.6 mph - N/A   Mostly Cloudy
4:15 PM 50.0 °F - 35.6 °F 58% 30.03 in 10.0 mi East 6.9 mph - N/A   Mostly Cloudy
4:35 PM 50.0 °F - 35.6 °F 58% 30.02 in 10.0 mi Calm Calm - N/A   Scattered Clouds
4:55 PM 50.0 °F - 35.6 °F 58% 30.01 in 10.0 mi Calm Calm - N/A   Clear
5:15 PM 50.0 °F - 35.6 °F 58% 30.01 in 10.0 mi Calm Calm - N/A   Clear
5:35 PM 51.8 °F - 35.6 °F 54% 30.01 in 10.0 mi Calm Calm - N/A   Scattered Clouds
5:55 PM 51.8 °F - 35.6 °F 54% 30.01 in 10.0 mi South 3.5 mph - N/A   Clear
6:15 PM 51.8 °F - 32.0 °F 47% 30.01 in 10.0 mi Calm Calm - N/A   Clear
6:35 PM 51.8 °F - 33.8 °F 50% 30.01 in 10.0 mi South 3.5 mph - N/A   Clear
6:55 PM 51.8 °F - 32.0 °F 47% 30.01 in 10.0 mi Calm Calm - N/A Thunderstorm Clear
7:15 PM 51.8 °F - 32.0 °F 47% 30.01 in 10.0 mi Calm Calm - N/A Thunderstorm Thunderstorm
7:35 PM 51.8 °F - 33.8 °F 50% 30.02 in 10.0 mi SE 4.6 mph - N/A Thunderstorm Thunderstorm
7:55 PM 50.0 °F - 35.6 °F 58% 30.03 in 10.0 mi SE 10.4 mph - N/A Rain , Thunderstorm Light Thunderstorms and Rain
8:15 PM 44.6 °F 40.7 °F 35.6 °F 71% 30.05 in 10.0 mi SW 6.9 mph - N/A   Mostly Cloudy
8:35 PM 44.6 °F 43.1 °F 37.4 °F 76% 30.05 in 10.0 mi South 3.5 mph - N/A   Mostly Cloudy
8:55 PM 44.6 °F - 35.6 °F 71% 30.05 in 10.0 mi Calm Calm - N/A   Mostly Cloudy
9:15 PM 44.6 °F - 35.6 °F 71% 30.05 in 10.0 mi Calm Calm - N/A Thunderstorm Scattered Clouds
9:35 PM 42.8 °F 40.1 °F 33.8 °F 70% 30.06 in 10.0 mi North 4.6 mph - N/A Thunderstorm Mostly Cloudy
9:55 PM 42.8 °F 41.1 °F 33.8 °F 70% 30.06 in 10.0 mi North 3.5 mph - N/A   Mostly Cloudy
10:15 PM 39.2 °F 37.0 °F 35.6 °F 87% 30.06 in 10.0 mi WNW 3.5 mph - N/A   Mostly Cloudy
10:35 PM 39.2 °F 34.2 °F 35.6 °F 87% 30.06 in 10.0 mi West 6.9 mph - N/A   Overcast
10:55 PM 39.2 °F 35.9 °F 35.6 °F 87% 30.07 in 10.0 mi West 4.6 mph - N/A   Overcast
11:15 PM 39.2 °F 35.9 °F 33.8 °F 81% 30.06 in 10.0 mi NNW 4.6 mph - N/A   Overcast
11:35 PM 37.4 °F 34.9 °F 33.8 °F 87% 30.06 in 10.0 mi NW 3.5 mph - N/A   Mostly Cloudy
11:55 PM 35.6 °F - 33.8 °F 93% 30.07 in 10.0 mi Calm Calm - N/A   Mostly Cloudy